Paso Robles, CA

9:15 PM PDT on July 23, 2017 (GMT -0700)
Paso Robles Municipal

Weather History for KPRB - December, 2013

Change the Weather History Date:

Wednesday, December 11, 2013

  Actual Average Record
Temperature  
Mean Temperature 46 °F 46 °F  
Max Temperature 65 °F 59 °F 76 °F (1958)
Min Temperature 26 °F 34 °F 23 °F (1963)
Degree Days  
Heating Degree Days 19 19  
Month to date heating degree days 254 196  
Since 1 July heating degree days 706 745  
Cooling Degree Days 0 0  
Month to date cooling degree days 0 0  
Year to date cooling degree days 1173 927  
Moisture  
Dew Point 21 °F    
Average Humidity 51    
Maximum Humidity 81    
Minimum Humidity 20    
Precipitation  
Precipitation 0.00 in 0.06 in 0.81 in (1993)
Month to date precipitation 0.17 0.56  
Year to date precipitation 1.92 11.33  
Since 1 July precipitation 0.46  
Sea Level Pressure  
Sea Level Pressure 30.20 in    
Wind  
Wind Speed 1 mph (SE)    
Max Wind Speed 10 mph    
Max Gust Speed -    
Visibility 10 miles    
Events      
T = Trace of Precipitation, MM = Missing Value Source: NWS Daily Summary

Daily Weather History Graph

Daily Weather History Graph

Search for Another Location

Airport or City:

Trip Planner

Search our weather history database for the weather conditions in past years. The results will help you decide how hot, cold, wet, or windy it might be!

Date:

Astronomy

Dec. 11, 2013 Rise Set
Actual Time 7:02 AM PST 4:49 PM PST
Civil Twilight 6:34 AM PST 5:17 PM PST
Nautical Twilight 6:02 AM PST 5:49 PM PST
Astronomical Twilight 5:31 AM PST 6:20 PM PST
Moon 1:18 PM PST (12/11) 1:37 AM PST (12/11)
Length of Visible Light 10h 43m
Length of Day
9h 47m
Waxing Gibbous, 72% of the Moon is Illuminated
Dec 11
Waxing Gibbous
Dec 17
Full
Dec 25
Last Quarter
Jan 1
New
Jan 7
First Quarter

Hourly Weather History & Observations

Time (PST) Temp. Windchill Dew Point Humidity Pressure Visibility Wind Dir Wind Speed Gust Speed Precip Events Conditions
12:53 AM 32.0 °F - 19.9 °F 61% 30.21 in 10.0 mi Calm Calm - N/A   Clear
1:53 AM 30.9 °F - 19.9 °F 64% 30.20 in 10.0 mi Calm Calm - N/A   Clear
2:53 AM 30.9 °F - 19.9 °F 64% 30.20 in 10.0 mi Calm Calm - N/A   Clear
3:53 AM 30.0 °F - 21.0 °F 69% 30.19 in 10.0 mi Calm Calm - N/A   Clear
4:53 AM 28.9 °F - 21.0 °F 72% 30.19 in 10.0 mi Calm Calm - N/A   Clear
5:53 AM 28.9 °F - 21.0 °F 72% 30.20 in 10.0 mi Calm Calm - N/A   Clear
6:53 AM 28.0 °F - 19.9 °F 72% 30.22 in 10.0 mi Calm Calm - N/A   Clear
7:53 AM 27.0 °F - 21.0 °F 78% 30.23 in 9.0 mi Calm Calm - N/A   Clear
8:53 AM 35.1 °F - 21.9 °F 59% 30.24 in 10.0 mi Calm Calm - N/A   Clear
9:53 AM 39.9 °F - 21.9 °F 49% 30.24 in 10.0 mi Calm Calm - N/A   Clear
10:53 AM 45.0 °F - 21.9 °F 40% 30.22 in 10.0 mi Calm Calm - N/A   Clear
11:53 AM 51.1 °F - 21.9 °F 32% 30.20 in 10.0 mi Calm Calm - N/A   Clear
12:53 PM 55.0 °F - 19.9 °F 25% 30.17 in 10.0 mi Calm Calm - N/A   Clear
1:53 PM 61.0 °F - 21.9 °F 22% 30.15 in 10.0 mi Calm Calm - N/A   Clear
2:53 PM 63.0 °F - 21.9 °F 21% 30.14 in 10.0 mi Calm Calm - N/A   Clear
3:53 PM 63.0 °F - 23.0 °F 22% 30.14 in 10.0 mi Calm Calm - N/A   Clear
4:53 PM 55.9 °F - 23.0 °F 28% 30.15 in 10.0 mi East 8.1 mph - N/A   Clear
5:53 PM 51.1 °F - 21.9 °F 32% 30.17 in 10.0 mi ESE 10.4 mph - N/A   Clear
6:53 PM 46.9 °F - 21.9 °F 37% 30.19 in 10.0 mi SE 5.8 mph - N/A   Clear
7:53 PM 44.1 °F 40.1 °F 23.0 °F 43% 30.20 in 10.0 mi SE 6.9 mph - N/A   Clear
8:53 PM 39.9 °F 35.8 °F 21.9 °F 49% 30.22 in 10.0 mi SSE 5.8 mph - N/A   Clear
9:53 PM 39.0 °F 35.7 °F 21.9 °F 50% 30.22 in 10.0 mi SSE 4.6 mph - N/A   Clear
10:53 PM 35.1 °F - 21.9 °F 59% 30.22 in 10.0 mi Calm Calm - N/A   Clear
11:53 PM 33.1 °F - 21.9 °F 64% 30.22 in 10.0 mi Calm Calm - N/A   Clear